[[{"header":{"parameterUnit":"m.s-1","parameterCategory":2,"la1":30.2992,"la2":30.254,"lo1":-89.0895,"lo2":-89.0443,"dy":0.0025,"dx":0.0025,"nx":19,"ny":19,"refTime":"2026-04-22T09:00:00:Z","depth":"0","parameterNumber":2,"parameterNumberName":"U-component_of_CURRENTS"},"data":[0,0,0,0.2627,0.2629,0.2679,0.2679,0.2765,0.2767,0,0,0,0,0,0,0,0,0,0,0,0.2602,0.2603,0.2627,0.2629,0.2679,0.2679,0.2765,0.2767,0,0,0,0,0,0,0,0,0,0,0,0.2602,0.2603,0.2603,0.263,0.2679,0.2679,0.2765,0.2717,0,0,0,0,0,0,0,0,0,0,0.2664,0.2636,0.2602,0.2603,0.263,0.2679,0.2679,0.2715,0.272,0.2755,0,0.2771,0,0.2784,0.2774,0.2775,0,0,0,0.2611,0.2631,0.2659,0.2603,0.2631,0.2679,0.2652,0.2718,0.2724,0.2763,0.2772,0.2775,0.2786,0.2775,0.2776,0.2907,0.2908,0,0,0.2609,0.2597,0.2654,0.2663,0.2656,0.265,0.2654,0.2721,0.2726,0.2772,0.2778,0.2787,0.2776,0.2777,0.2906,0.2907,0,0,0,0.2613,0.2595,0.262,0.2659,0.2675,0.2652,0.2656,0.2722,0.2735,0.2779,0.2788,0.2777,0.2778,0.2906,0.2907,0.295,0,0,0,0.261,0.26,0.2619,0.261,0.2673,0.2695,0.2655,0.2729,0.2738,0.2788,0.2777,0.2779,0.2905,0.2906,0.2947,0.2958,0,0,0,0.2598,0.2598,0.261,0.261,0.2642,0.2694,0.2709,0.2731,0.2745,0.2775,0.278,0.2905,0.2906,0.2945,0.2954,0.3034,0,0,0,0.2574,0.2593,0.261,0.2635,0.2642,0.2699,0.2708,0.2754,0.2782,0.2777,0.2905,0.2907,0.2944,0.2952,0.3031,0.2951,0.2959,0,0,0.2583,0.2594,0.2609,0.2626,0.2674,0.269,0.2753,0.2796,0.2813,0.288,0.2883,0.2948,0.2954,0.3034,0.3027,0.3032,0,0,0,0.2602,0.2615,0.2636,0.2665,0.2708,0.2761,0.28,0.2839,0.2908,0.2841,0.2963,0.2965,0.3014,0.296,0.2965,0.2744,0.2913,0.2913,0.2912,0.2581,0.2609,0.2636,0.2684,0.2732,0.2816,0.2877,0.2938,0.2946,0.2992,0.3011,0.3114,0.3055,0.3058,0.2832,0.3029,0.3029,0.3029,0.3029,0.2571,0.2576,0.2631,0.2667,0.2742,0.2807,0.2949,0.2991,0.311,0.3074,0.3121,0.302,0.3065,0.2823,0.3032,0.3032,0.3031,0.3031,0.3031,0.2526,0.2534,0.2559,0.2615,0.2702,0.2813,0.2946,0.305,0.3141,0.3199,0.3165,0.3162,0.2941,0.3234,0.3234,0.3234,0.3235,0.3235,0.3235,0.2455,0.2488,0.2504,0.258,0.2626,0.2743,0.2951,0.306,0.318,0.3207,0.3207,0.2939,0.3177,0.316,0.3242,0.3241,0.324,0.3239,0.3239,0.2396,0.242,0.2436,0.2467,0.2575,0.2631,0.2852,0.3036,0.318,0.3216,0.2947,0.3226,0.3211,0.3205,0.319,0.3275,0.3275,0.3275,0.3275,0.2348,0.2366,0.2366,0.2393,0.2468,0.2573,0.2646,0.2808,0.288,0.2828,0.2838,0.272,0.2728,0.2678,0.2684,0.2655,0.2603,0.2602,0.2601,0.2308,0.2319,0.229,0.2324,0.2395,0.2479,0.2447,0.2383,0.2477,0.2553,0.255,0.2579,0.2383,0.2415,0.2318,0.2344,0.2291,0,0]},{"header":{"parameterUnit":"m.s-1","parameterCategory":2,"la1":30.2992,"la2":30.254,"lo1":-89.0895,"lo2":-89.0443,"dy":0.0025,"dx":0.0025,"nx":19,"ny":19,"refTime":"2026-04-22T09:00:00:Z","depth":"0","parameterNumber":3,"parameterNumberName":"V-component_of_CURRENTS"},"data":[0,0,0,0.0249,0.0249,0.0251,0.0251,0.0229,0.0229,0,0,0,0,0,0,0,0,0,0,0,0.0246,0.0246,0.0249,0.0249,0.0251,0.0251,0.0229,0.0229,0,0,0,0,0,0,0,0,0,0,0,0.0246,0.0246,0.0246,0.0249,0.0251,0.0251,0.0229,0.0232,0,0,0,0,0,0,0,0,0,0,0.0233,0.0234,0.0246,0.0246,0.025,0.0251,0.0251,0.0232,0.0232,0.0225,0,0.023,0,0.0234,0.0228,0.0228,0,0,0,0.0241,0.0235,0.0239,0.0246,0.025,0.0251,0.0248,0.0232,0.0232,0.0224,0.023,0.0229,0.0233,0.0228,0.0228,0.0263,0.0264,0,0,0.0241,0.024,0.024,0.0239,0.0256,0.0248,0.0248,0.0232,0.0231,0.023,0.0229,0.0233,0.0228,0.0228,0.0263,0.0263,0,0,0,0.0246,0.024,0.0245,0.024,0.0245,0.0248,0.0248,0.0232,0.0235,0.0229,0.0233,0.0228,0.0227,0.0262,0.0263,0.0354,0,0,0,0.0246,0.0244,0.0245,0.0244,0.0245,0.0241,0.0248,0.0236,0.0234,0.0233,0.0228,0.0227,0.0262,0.0263,0.035,0.0416,0,0,0,0.0245,0.0244,0.0247,0.0244,0.025,0.0242,0.0243,0.0235,0.0237,0.0228,0.0227,0.0261,0.0263,0.0347,0.041,0.0502,0,0,0,0.0239,0.0268,0.0247,0.028,0.025,0.0287,0.0244,0.0261,0.0259,0.0228,0.0262,0.0263,0.0346,0.0406,0.0497,0.0613,0.0645,0,0,0.0279,0.0272,0.0295,0.0277,0.0326,0.0286,0.0335,0.0309,0.0274,0.0262,0.0263,0.0351,0.0409,0.0501,0.0685,0.0715,0,0,0,0.031,0.0329,0.0339,0.036,0.0368,0.039,0.036,0.0357,0.0356,0.028,0.0351,0.0385,0.044,0.05,0.0523,0.0417,0.0269,0.0269,0.0269,0.0365,0.0374,0.042,0.0436,0.0457,0.0462,0.0484,0.0472,0.0415,0.0434,0.0458,0.0591,0.0653,0.0673,0.0561,0.0442,0.0442,0.0442,0.0442,0.0442,0.0476,0.0487,0.0536,0.0551,0.0589,0.0607,0.0587,0.0634,0.0552,0.06,0.059,0.0705,0.0576,0.0448,0.0447,0.0447,0.0446,0.0446,0.0486,0.0506,0.0528,0.0597,0.0664,0.0684,0.0793,0.0769,0.0742,0.0784,0.0852,0.0851,0.0742,0.0807,0.0808,0.0809,0.081,0.081,0.081,0.0522,0.0546,0.0607,0.0676,0.0735,0.0831,0.0914,0.0975,0.1024,0.0989,0.099,0.0787,0.0703,0.0693,0.0821,0.0819,0.0818,0.0817,0.0816,0.0589,0.0593,0.0687,0.0748,0.0897,0.1059,0.1127,0.1292,0.1321,0.1372,0.1098,0.1099,0.1092,0.1072,0.1071,0.1291,0.1291,0.1291,0.1291,0.0629,0.064,0.0763,0.0872,0.1023,0.1165,0.1451,0.1577,0.1466,0.1366,0.1229,0.1136,0.1121,0.1107,0.1086,0.1081,0.1298,0.1297,0.1297,0.0676,0.0708,0.0801,0.0904,0.1077,0.1305,0.1615,0.1783,0.1528,0.1277,0.106,0.106,0.0892,0.0878,0.0824,0.0803,0.0783,0,0]}],[{"header":{"parameterUnit":"m.s-1","parameterCategory":2,"la1":30.2992,"la2":30.254,"lo1":-89.0895,"lo2":-89.0443,"dy":0.0025,"dx":0.0025,"nx":19,"ny":19,"refTime":"2026-04-22T09:00:00:Z","depth":"2","parameterNumber":2,"parameterNumberName":"U-component_of_CURRENTS"},"data":[0,0,0,0.2233,0.2235,0.2315,0.2315,0.2369,0.2369,0,0,0,0,0,0,0,0,0,0,0,0.22,0.22,0.2233,0.2235,0.2315,0.2315,0.2369,0.2369,0,0,0,0,0,0,0,0,0,0,0,0.2199,0.22,0.22,0.2235,0.2315,0.2315,0.2369,0.232,0,0,0,0,0,0,0,0,0,0,0.2248,0.2237,0.22,0.22,0.2235,0.2315,0.2315,0.2318,0.2323,0.2319,0,0.2331,0,0.2354,0.2372,0.2372,0,0,0,0.2234,0.2233,0.2244,0.2201,0.2236,0.2315,0.2278,0.2321,0.2327,0.2325,0.2332,0.2335,0.2355,0.2372,0.2372,0.2459,0.246,0,0,0.2229,0.2225,0.224,0.2247,0.2257,0.2276,0.2281,0.2325,0.2336,0.2333,0.2337,0.2355,0.2372,0.2373,0.2459,0.246,0,0,0,0.2217,0.2222,0.2233,0.2244,0.2264,0.2278,0.2284,0.2334,0.2335,0.2337,0.2356,0.2373,0.2373,0.2458,0.2459,0.2508,0,0,0,0.2214,0.2215,0.223,0.223,0.2264,0.2311,0.2292,0.2331,0.2338,0.2356,0.2373,0.2373,0.2457,0.2459,0.2505,0.2506,0,0,0,0.2196,0.2213,0.222,0.2229,0.2264,0.231,0.2315,0.2333,0.2349,0.2372,0.2374,0.2457,0.2458,0.2503,0.2502,0.258,0,0,0,0.2192,0.2206,0.222,0.2246,0.2264,0.2306,0.2315,0.2364,0.2389,0.2373,0.2457,0.2459,0.2502,0.25,0.2577,0.2417,0.2419,0,0,0.2203,0.2207,0.2222,0.2236,0.227,0.2295,0.2355,0.2398,0.241,0.2437,0.244,0.2506,0.2502,0.2579,0.2509,0.2508,0,0,0,0.2221,0.2228,0.2243,0.2269,0.23,0.2351,0.2395,0.2427,0.2495,0.2433,0.2525,0.2521,0.2568,0.2466,0.2466,0.2467,0.2466,0.2466,0.2466,0.2218,0.2235,0.2257,0.2287,0.2323,0.2398,0.2458,0.2513,0.2516,0.257,0.2576,0.2683,0.2575,0.2573,0.2603,0.2604,0.2604,0.2604,0.2604,0.221,0.2212,0.2256,0.2281,0.2339,0.2399,0.2514,0.2562,0.2672,0.264,0.2685,0.2539,0.2574,0.2608,0.2608,0.2607,0.2607,0.2606,0.2606,0.2176,0.2179,0.2205,0.2249,0.2324,0.2415,0.2518,0.2621,0.2705,0.2763,0.2677,0.2673,0.271,0.2803,0.2803,0.2804,0.2804,0.2804,0.2804,0.2119,0.2147,0.2162,0.2227,0.227,0.2366,0.2533,0.2611,0.2687,0.2709,0.2708,0.275,0.2744,0.2722,0.281,0.2809,0.2808,0.2808,0.2807,0.2065,0.209,0.2101,0.2133,0.2213,0.2242,0.2418,0.25,0.2616,0.2613,0.2692,0.2692,0.2664,0.2661,0.2638,0.2699,0.2699,0.2699,0.2699,0.2023,0.2041,0.2037,0.2056,0.2097,0.2169,0.2136,0.2175,0.234,0.2386,0.24,0.2292,0.2303,0.2249,0.2256,0.2222,0.2176,0.2175,0.2174,0.199,0.1999,0.1972,0.199,0.2025,0.2041,0.1922,0.1778,0.1896,0.2153,0.2307,0.2664,0.2538,0.2543,0.2483,0.2485,0.244,0,0]},{"header":{"parameterUnit":"m.s-1","parameterCategory":2,"la1":30.2992,"la2":30.254,"lo1":-89.0895,"lo2":-89.0443,"dy":0.0025,"dx":0.0025,"nx":19,"ny":19,"refTime":"2026-04-22T09:00:00:Z","depth":"2","parameterNumber":3,"parameterNumberName":"V-component_of_CURRENTS"},"data":[0,0,0,0.016,0.016,0.0166,0.0166,0.0162,0.0162,0,0,0,0,0,0,0,0,0,0,0,0.0157,0.0158,0.016,0.016,0.0166,0.0166,0.0162,0.0162,0,0,0,0,0,0,0,0,0,0,0,0.0157,0.0158,0.0158,0.016,0.0166,0.0166,0.0162,0.0159,0,0,0,0,0,0,0,0,0,0,0.0154,0.0152,0.0158,0.0158,0.016,0.0166,0.0166,0.0159,0.0159,0.0158,0,0.0164,0,0.0166,0.0162,0.0162,0,0,0,0.0154,0.0152,0.0159,0.0158,0.016,0.0166,0.0162,0.0159,0.0159,0.0158,0.0164,0.0164,0.0166,0.0162,0.0162,0.0196,0.0197,0,0,0.0154,0.0152,0.0158,0.0159,0.0168,0.0161,0.0162,0.0159,0.0159,0.0164,0.0164,0.0166,0.0162,0.0162,0.0196,0.0196,0,0,0,0.0157,0.0152,0.0158,0.0159,0.0163,0.0162,0.0162,0.0159,0.0163,0.0164,0.0165,0.0162,0.0162,0.0196,0.0196,0.0274,0,0,0,0.0156,0.0154,0.0158,0.0157,0.0163,0.0162,0.0162,0.0163,0.0163,0.0165,0.0162,0.0162,0.0195,0.0196,0.0271,0.0327,0,0,0,0.0156,0.0154,0.0158,0.0157,0.0163,0.0162,0.0165,0.0163,0.0164,0.0162,0.0162,0.0195,0.0196,0.0269,0.0321,0.0386,0,0,0,0.0149,0.0174,0.0158,0.0188,0.0163,0.0199,0.0165,0.0182,0.0185,0.0162,0.0195,0.0196,0.0268,0.0318,0.0382,0.0436,0.0458,0,0,0.0182,0.0178,0.0198,0.0185,0.023,0.0197,0.0242,0.0225,0.0196,0.0193,0.0194,0.0272,0.0321,0.0385,0.0487,0.0508,0,0,0,0.021,0.0226,0.0237,0.0257,0.0269,0.0292,0.0269,0.0265,0.0267,0.0203,0.0268,0.0297,0.0335,0.0359,0.0375,0.02,0.02,0.02,0.02,0.0253,0.0265,0.0308,0.0327,0.0349,0.0355,0.0375,0.0363,0.0318,0.0331,0.0357,0.0457,0.0482,0.0495,0.034,0.034,0.0341,0.0341,0.0341,0.0318,0.0351,0.0366,0.0412,0.0431,0.0468,0.0483,0.0463,0.0497,0.0432,0.0464,0.0435,0.0518,0.0347,0.0346,0.0345,0.0344,0.0344,0.0344,0.0352,0.0373,0.0396,0.0465,0.0529,0.0551,0.0645,0.0622,0.0587,0.0619,0.0637,0.0636,0.0523,0.0631,0.0631,0.0632,0.0632,0.0633,0.0633,0.0381,0.0407,0.0464,0.0532,0.0592,0.0682,0.0749,0.0786,0.0789,0.0747,0.0747,0.0555,0.0545,0.0539,0.0641,0.064,0.0639,0.0638,0.0637,0.0438,0.0444,0.0531,0.0592,0.0738,0.0884,0.0934,0.1019,0.1019,0.1026,0.0818,0.0811,0.0798,0.0784,0.0783,0.0943,0.0943,0.0943,0.0943,0.0471,0.0483,0.06,0.0708,0.0854,0.098,0.1175,0.1183,0.1094,0.1004,0.1001,0.0932,0.0919,0.0907,0.089,0.0889,0.1076,0.1076,0.1076,0.0515,0.0545,0.0635,0.0737,0.0907,0.1103,0.1287,0.1277,0.1107,0.1077,0.0979,0.096,0.0847,0.0831,0.0796,0.0775,0.0767,0,0]}],[{"header":{"parameterUnit":"m.s-1","parameterCategory":2,"la1":30.2992,"la2":30.254,"lo1":-89.0895,"lo2":-89.0443,"dy":0.0025,"dx":0.0025,"nx":19,"ny":19,"refTime":"2026-04-22T09:00:00:Z","depth":"4","parameterNumber":2,"parameterNumberName":"U-component_of_CURRENTS"},"data":[0,0,0,0.1337,0.1339,0.1439,0.1439,0.1503,0.1503,0,0,0,0,0,0,0,0,0,0,0,0.1309,0.1309,0.1337,0.1339,0.1439,0.1439,0.1503,0.1503,0,0,0,0,0,0,0,0,0,0,0,0.1308,0.1309,0.131,0.134,0.1439,0.1439,0.1503,0.1444,0,0,0,0,0,0,0,0,0,0,0.1355,0.135,0.1309,0.131,0.134,0.1439,0.1439,0.1442,0.1447,0.1439,0,0.1464,0,0.1481,0.1506,0.1506,0,0,0,0.134,0.1345,0.1359,0.131,0.1341,0.1439,0.1394,0.1445,0.1452,0.1447,0.1465,0.1468,0.1482,0.1506,0.1507,0.1577,0.1577,0,0,0.1335,0.1337,0.1355,0.1363,0.1378,0.1391,0.1397,0.145,0.1467,0.1465,0.147,0.1483,0.1507,0.1507,0.1576,0.1577,0,0,0,0.1318,0.1333,0.1347,0.136,0.1381,0.1394,0.1401,0.1466,0.1467,0.147,0.1484,0.1507,0.1507,0.1576,0.1577,0.1631,0,0,0,0.1315,0.1323,0.1345,0.1348,0.1381,0.1437,0.1416,0.1464,0.147,0.1484,0.1507,0.1508,0.1575,0.1576,0.1629,0.1629,0,0,0,0.1302,0.1322,0.1334,0.1348,0.1388,0.1436,0.1442,0.1466,0.1478,0.1506,0.1508,0.1575,0.1576,0.1627,0.1626,0.1659,0,0,0,0.1298,0.1316,0.1334,0.136,0.1387,0.1429,0.1442,0.1496,0.1525,0.1507,0.1575,0.1576,0.1626,0.1624,0.1657,0.1427,0,0,0,0.1307,0.1317,0.1328,0.1346,0.1377,0.1414,0.1467,0.1521,0.1536,0.1552,0.1555,0.163,0.1625,0.1659,0.1494,0,0,0,0,0.1321,0.133,0.1343,0.1373,0.1405,0.1461,0.1512,0.1544,0.1612,0.1558,0.1637,0.1632,0.1651,0.1511,0.1582,0.1582,0.1582,0.1581,0.1581,0.1329,0.1338,0.1356,0.1382,0.1422,0.1502,0.1556,0.161,0.1624,0.1677,0.1683,0.1751,0.1606,0.1702,0.1703,0.1703,0.1703,0.1703,0.1703,0.1317,0.1311,0.1356,0.138,0.1445,0.1508,0.1608,0.1659,0.174,0.1736,0.1754,0.1586,0.1709,0.1708,0.1707,0.1707,0.1706,0.1706,0.1705,0.1287,0.1284,0.1318,0.1365,0.144,0.1531,0.1599,0.1701,0.1777,0.1813,0.1672,0.1783,0.177,0.1841,0.1841,0.1841,0.1841,0.1841,0.1842,0.1233,0.1261,0.1282,0.1348,0.1388,0.1471,0.1614,0.1659,0.1763,0.1691,0.1836,0.1796,0.1792,0.1778,0.1844,0.1844,0.1843,0.1843,0.1843,0.1169,0.1204,0.1217,0.1249,0.131,0.1339,0.1499,0.1549,0.1589,0.1576,0.1623,0.1633,0.1587,0.1587,0.1564,0.157,0.1567,0.1564,0,0.1127,0.1144,0.1146,0.115,0.1151,0.124,0.1227,0.1311,0.1419,0.1373,0.1591,0.1642,0.1648,0.1593,0.1589,0.1559,0,0,0,0.1089,0.1095,0.107,0.1078,0.1056,0.1089,0.1209,0.1198,0.1403,0.1379,0.1496,0.1514,0.1692,0.1852,0.1805,0.1799,0.1774,0,0]},{"header":{"parameterUnit":"m.s-1","parameterCategory":2,"la1":30.2992,"la2":30.254,"lo1":-89.0895,"lo2":-89.0443,"dy":0.0025,"dx":0.0025,"nx":19,"ny":19,"refTime":"2026-04-22T09:00:00:Z","depth":"4","parameterNumber":3,"parameterNumberName":"V-component_of_CURRENTS"},"data":[0,0,0,0.0171,0.0172,0.0194,0.0194,0.0217,0.0217,0,0,0,0,0,0,0,0,0,0,0,0.0164,0.0164,0.0171,0.0172,0.0194,0.0194,0.0217,0.0217,0,0,0,0,0,0,0,0,0,0,0,0.0164,0.0164,0.0165,0.0172,0.0194,0.0194,0.0217,0.0201,0,0,0,0,0,0,0,0,0,0,0.018,0.0173,0.0164,0.0165,0.0172,0.0194,0.0194,0.02,0.0202,0.0205,0,0.0212,0,0.0216,0.0219,0.0219,0,0,0,0.017,0.0172,0.018,0.0165,0.0172,0.0194,0.0183,0.0201,0.0203,0.0208,0.0213,0.0213,0.0216,0.0219,0.0219,0.0266,0.0266,0,0,0.0168,0.0166,0.0179,0.0181,0.0182,0.0183,0.0184,0.0202,0.0205,0.0213,0.0214,0.0216,0.0219,0.0219,0.0265,0.0266,0,0,0,0.0166,0.0165,0.0172,0.018,0.0185,0.0183,0.0185,0.0204,0.0207,0.0214,0.0217,0.0219,0.0219,0.0265,0.0265,0.0314,0,0,0,0.0165,0.0164,0.0172,0.017,0.0185,0.0195,0.0186,0.0206,0.0208,0.0217,0.0219,0.0219,0.0265,0.0265,0.0312,0.035,0,0,0,0.0162,0.0163,0.0168,0.017,0.0181,0.0195,0.0199,0.0206,0.021,0.0219,0.022,0.0264,0.0265,0.031,0.0346,0.0372,0,0,0,0.0156,0.0174,0.0168,0.0192,0.0181,0.0219,0.0199,0.0222,0.0233,0.0219,0.0265,0.0265,0.0309,0.0344,0.037,0.0357,0,0,0,0.0177,0.0177,0.0193,0.0188,0.023,0.0215,0.0259,0.0259,0.0245,0.0257,0.0258,0.0312,0.0346,0.0372,0.0404,0,0,0,0,0.0199,0.0212,0.0223,0.0245,0.0264,0.0292,0.0288,0.0289,0.0302,0.0256,0.0315,0.0335,0.035,0.0335,0.0269,0.0269,0.0269,0.0269,0.0269,0.0221,0.0238,0.0275,0.0299,0.0324,0.0344,0.0364,0.0365,0.0341,0.0353,0.0376,0.0434,0.042,0.0368,0.0368,0.0368,0.0368,0.0368,0.0369,0.0263,0.0291,0.0316,0.0359,0.0388,0.0426,0.0448,0.0437,0.0462,0.0428,0.0439,0.0389,0.0373,0.0372,0.0372,0.0371,0.0371,0.037,0.037,0.0279,0.0299,0.0325,0.0392,0.0456,0.0489,0.0558,0.0551,0.0521,0.0537,0.051,0.0473,0.0467,0.0536,0.0537,0.0537,0.0537,0.0537,0.0537,0.0288,0.0318,0.0367,0.0435,0.0494,0.0573,0.0631,0.0645,0.0615,0.0581,0.0556,0.049,0.0485,0.0477,0.0542,0.0541,0.0541,0.054,0.054,0.0316,0.0328,0.04,0.0458,0.0591,0.0651,0.0707,0.0708,0.0719,0.068,0.0595,0.0591,0.0574,0.0567,0.056,0.0653,0.0654,0.0654,0,0.0331,0.0343,0.044,0.0534,0.0644,0.0705,0.0749,0.0757,0.0694,0.0677,0.0698,0.0603,0.0599,0.0579,0.0573,0.0566,0,0,0,0.0355,0.0382,0.0451,0.0543,0.067,0.0725,0.0764,0.075,0.07,0.0697,0.0656,0.0655,0.0611,0.0556,0.0521,0.0514,0.0499,0,0]}]]